Voltar ao catálogo

STARLINK-35368

AtivoComunicaçõesVLEO
NORAD 65830·PAYLOAD·🇺🇸 United States

Lançado Sep 29, 2025 de Vandenberg Space Force Base

Loading…

Próximas Passagens (próximas 24 horas)

TLE

AtualizadoSource: CelesTrak SupGP

Época: Sep 14, 2026, 20:50 UTC

1 65830C 25221H   26257.86854167  .00020716  00000+0  61238-3 0  2576
2 65830  53.1570 288.0895 0001104  82.5783 120.6975 15.34363861    15

Acompanhe STARLINK-35368 em tempo real com AllMySat

Download on the App Store